Hourly Data Report for June 15, 2012

All times are specified in Local Standard Time (LST). Add 1 hour to adjust for Daylight Saving Time where and when it is observed.

SAINT JOHN A
NEW BRUNSWICK

45°18'58.000" N
65°53'24.000" W
108.80 m
8104901
71609
YSJ

Download Data

Hourly Data (June 2012)
Hourly Data Report for June 15, 2012
Temp Definition
°C
Dew Point Temp Definition
°C
Rel Hum Definition
%
Wind Dir Definition
10's deg

Wind Spd Definition
km/h
Visibility Definition
km
Stn Press Definition
kPa
Hmdx Definition


Wind Chill Definition


Weather Definition


TIME
00:00 8.7 8.6 99   0 10.0 101.19     Fog
01:00 8.8 8.5 98   0 10.0 101.21     Fog
02:00 9.1 8.4 95 8 6 10.0 101.23     Fog
03:00 9.7 9.7 100 35 8 10.0 101.23     Fog
04:00 9.8 9.4 97 4 8 10.0 101.24     LegendNANA
05:00 11.4 11.1 98 2 16 4.8 101.24     Fog
06:00 11.5 11.0 97 35 20 10.0 101.25     LegendNANA
07:00 13.1 11.0 87 0 29 10.0 101.25     LegendNANA
08:00 15.3 11.3 77 1 20 10.0 101.26     Mostly Cloudy
09:00 17.5 12.7 73 1 18 10.0 101.27     LegendNANA
10:00 18.4 12.2 67 2 24 10.0 101.30     LegendNANA
11:00 20.0 12.1 60 1 31 10.0 101.32     Mostly Cloudy
12:00 22.0 10.3 47 1 36 10.0 101.31     LegendNANA
13:00 22.6 9.6 43 1 32 10.0 101.33     LegendNANA
14:00 22.5 10.8 47 2 22 10.0 101.30     Mostly Cloudy
15:00 22.4 10.1 45 2 31 10.0 101.28     LegendNANA
16:00 21.5 8.2 42 1 30 10.0 101.27     LegendNANA
17:00 21.0 8.8 45 4 33 10.0 101.26     Mainly Clear
18:00 19.1 10.0 55 4 26 10.0 101.26     LegendNANA
19:00 17.5 9.2 58 3 23 10.0 101.32     LegendNANA
20:00 14.8 9.2 69 6 22 10.0 101.39     Mainly Clear
21:00 12.6 9.1 79 2 23 10.0 101.46     LegendNANA
22:00 11.8 9.2 84 4 21 10.0 101.50     LegendNANA
23:00 11.6 9.5 87 2 17 10.0 101.51     Cloudy

Notes on Data Quality.

Legend

  • E = Estimated
  • M = Missing
  • NA = Not Available
Date modified: